Location: Marietta
(33.9530°N, 84.5500°W)
Time: 20:23:01

Tiangong 1 - Visible Passes

Search period start: 23 March 2018 00:00
Search period end: 02 April 2018 00:00
Orbit: 207 x 229 km, 42.7° (Epoch: 23 March)

Date Brightness Start Highest point End Pass type
(mag) Time Alt. Az. Time Alt. Az. Time Alt. Az.
29 Mar -0.3 06:49:10 17° WSW 06:50:30 80° NNW 06:52:25 10° ENE visible
30 Mar -0.3 06:25:25 66° NW 06:25:29 67° NNW 06:27:24 10° ENE visible
31 Mar 2.7 06:00:46 19° NE 06:00:46 19° NE 06:01:30 10° NE visible
